| time (UTC) | temp F | wind direction | speed MPH | gust MPH | rain 1hr in | rain 24hr in | rain mn in | humidity % | barometer mb |
| 20260507132914 | 54 | 355 | 0.0 | 0.0 | 0.00 | 0.00 | 0.00 | 87 | 1015.8 |
| 20260507132408 | 54 | 355 | 0.0 | 0.0 | 0.00 | 0.00 | 0.00 | 86 | 1015.7 |
| 20260507131823 | 55 | 355 | 0.0 | 0.0 | 0.00 | 0.00 | 0.00 | 86 | 1015.7 |
| 20260507131315 | 55 | 355 | 0.0 | 0.0 | 0.00 | 0.00 | 0.00 | 86 | 1015.7 |
| 20260507125704 | 55 | 355 | 0.0 | 0.0 | 0.00 | 0.00 | 0.00 | 86 | 1015.7 |
| 20260507125136 | 55 | 355 | 0.0 | 0.0 | 0.00 | 0.00 | 0.00 | 86 | 1015.6 |
| 20260507124631 | 55 | 355 | 0.0 | 0.0 | 0.00 | 0.00 | 0.00 | 86 | 1015.6 |
| 20260507124124 | 55 | 355 | 0.0 | 0.0 | 0.00 | 0.00 | 0.00 | 86 | 1015.6 |
| 20260507123612 | 55 | 355 | 0.0 | 0.0 | 0.00 | 0.00 | 0.00 | 86 | 1015.6 |
| 20260507122522 | 55 | 355 | 0.0 | 0.0 | 0.00 | 0.00 | 0.00 | 86 | 1015.6 |
| 20260507121939 | 56 | 355 | 0.0 | 0.0 | 0.00 | 0.00 | 0.00 | 86 | 1015.6 |
| 20260507121422 | 56 | 355 | 0.0 | 0.0 | 0.00 | 0.00 | 0.00 | 86 | 1015.6 |
| 20260507120913 | 56 | 355 | 0.0 | 0.0 | 0.00 | 0.00 | 0.00 | 86 | 1015.6 |
| 20260507120411 | 56 | 355 | 0.0 | 0.0 | 0.00 | 0.00 | 0.00 | 86 | 1015.6 |
| 20260507115824 | 56 | 355 | 0.0 | 0.0 | 0.00 | 0.00 | 0.00 | 86 | 1015.6 |
| 20260507115319 | 56 | 355 | 0.0 | 0.0 | 0.00 | 0.00 | 0.00 | 86 | 1015.6 |
| 20260507114815 | 56 | 355 | 0.0 | 0.0 | 0.00 | 0.00 | 0.00 | 85 | 1015.6 |
| 20260507114311 | 56 | 355 | 0.0 | 0.0 | 0.00 | 0.00 | 0.00 | 85 | 1015.6 |
| 20260507113210 | 56 | 355 | 0.0 | 0.0 | 0.00 | 0.00 | 0.00 | 85 | 1015.6 |
| 20260507112706 | 56 | 355 | 0.0 | 0.0 | 0.00 | 0.00 | 0.00 | 85 | 1015.7 |
| 20260507112143 | 56 | 355 | 0.0 | 0.0 | 0.00 | 0.00 | 0.00 | 85 | 1015.7 |
| 20260507111632 | 56 | 355 | 0.0 | 0.0 | 0.00 | 0.00 | 0.00 | 85 | 1015.8 |
| 20260507111025 | 56 | 355 | 0.0 | 0.0 | 0.00 | 0.00 | 0.00 | 84 | 1015.8 |
| 20260507110522 | 56 | 355 | 0.0 | 0.0 | 0.00 | 0.00 | 0.00 | 84 | 1015.8 |
| 20260507110009 | 56 | 355 | 0.0 | 0.0 | 0.00 | 0.00 | 0.00 | 84 | 1015.9 |
| 20260507105457 | 56 | 355 | 0.0 | 0.0 | 0.00 | 0.00 | 0.00 | 84 | 1016.0 |
| 20260507104916 | 56 | 355 | 0.0 | 0.0 | 0.00 | 0.00 | 0.00 | 84 | 1016.0 |
| 20260507104420 | 57 | 355 | 0.0 | 0.0 | 0.00 | 0.00 | 0.00 | 84 | 1015.9 |
| 20260507103919 | 57 | 355 | 0.0 | 0.0 | 0.00 | 0.00 | 0.00 | 84 | 1016.0 |
| 20260507102902 | 57 | 355 | 0.0 | 0.0 | 0.00 | 0.00 | 0.00 | 83 | 1015.9 |
| 20260507102322 | 57 | 355 | 0.0 | 0.0 | 0.00 | 0.00 | 0.00 | 83 | 1016.0 |
| 20260507101818 | 57 | 355 | 0.0 | 0.0 | 0.00 | 0.00 | 0.00 | 83 | 1016.0 |
| 20260507101310 | 57 | 355 | 0.0 | 0.0 | 0.00 | 0.00 | 0.00 | 83 | 1015.9 |
| 20260507100225 | 57 | 355 | 0.0 | 0.0 | 0.00 | 0.00 | 0.00 | 82 | 1015.9 |
| 20260507095712 | 57 | 355 | 0.0 | 0.0 | 0.00 | 0.00 | 0.00 | 82 | 1016.0 |
| 20260507094636 | 58 | 355 | 0.0 | 0.0 | 0.00 | 0.00 | 0.00 | 82 | 1016.0 |
| 20260507094136 | 58 | 355 | 0.0 | 0.0 | 0.00 | 0.00 | 0.00 | 82 | 1016.1 |
| 20260507093630 | 58 | 355 | 0.0 | 0.0 | 0.00 | 0.00 | 0.00 | 82 | 1016.1 |
| 20260507093102 | 58 | 355 | 0.0 | 0.0 | 0.00 | 0.00 | 0.00 | 82 | 1016.2 |
| 20260507092519 | 58 | 355 | 0.0 | 0.0 | 0.00 | 0.00 | 0.00 | 82 | 1016.2 |
| 20260507092006 | 58 | 355 | 0.0 | 0.0 | 0.00 | 0.00 | 0.00 | 81 | 1016.2 |
| 20260507090915 | 58 | 355 | 0.0 | 0.0 | 0.00 | 0.00 | 0.00 | 81 | 1016.4 |
| 20260507090352 | 58 | 355 | 0.0 | 0.0 | 0.00 | 0.00 | 0.00 | 81 | 1016.5 |
| 20260507085316 | 58 | 355 | 0.0 | 0.0 | 0.00 | 0.00 | 0.00 | 81 | 1016.5 |
| 20260507084809 | 58 | 355 | 0.0 | 0.0 | 0.00 | 0.00 | 0.00 | 80 | 1016.8 |
| 20260507083720 | 58 | 355 | 0.0 | 0.0 | 0.00 | 0.00 | 0.00 | 80 | 1016.8 |
| 20260507083210 | 58 | 355 | 0.0 | 0.0 | 0.00 | 0.00 | 0.00 | 80 | 1016.7 |
| 20260507082642 | 58 | 355 | 0.0 | 0.0 | 0.00 | 0.00 | 0.00 | 79 | 1016.9 |
| 20260507082056 | 59 | 355 | 0.0 | 0.0 | 0.00 | 0.00 | 0.00 | 79 | 1016.9 |
| 20260507081532 | 59 | 355 | 0.0 | 0.0 | 0.00 | 0.00 | 0.00 | 79 | 1017.0 |
| 20260507081018 | 59 | 355 | 0.0 | 0.0 | 0.00 | 0.00 | 0.00 | 79 | 1017.0 |
| 20260507080510 | 59 | 355 | 0.0 | 0.0 | 0.00 | 0.00 | 0.00 | 79 | 1017.1 |
| 20260507075418 | 59 | 355 | 0.0 | 0.0 | 0.00 | 0.00 | 0.00 | 78 | 1017.0 |
| 20260507074916 | 59 | 355 | 0.0 | 0.0 | 0.00 | 0.00 | 0.00 | 78 | 1017.0 |
| 20260507074414 | 60 | 355 | 0.0 | 0.0 | 0.00 | 0.00 | 0.00 | 78 | 1016.9 |
| 20260507073906 | 60 | 355 | 0.0 | 0.0 | 0.00 | 0.00 | 0.00 | 78 | 1016.9 |
| 20260507073345 | 60 | 355 | 0.0 | 0.0 | 0.00 | 0.00 | 0.00 | 78 | 1016.9 |
| 20260507072815 | 60 | 355 | 0.0 | 0.0 | 0.00 | 0.00 | 0.00 | 78 | 1016.9 |
| 20260507072257 | 60 | 355 | 0.0 | 0.0 | 0.00 | 0.00 | 0.00 | 78 | 1016.9 |
| 20260507071717 | 60 | 355 | 0.0 | 0.0 | 0.00 | 0.00 | 0.00 | 78 | 1017.0 |
| 20260507071206 | 60 | 355 | 0.0 | 1.0 | 0.00 | 0.00 | 0.00 | 78 | 1017.0 |
| 20260507070641 | 60 | 355 | 0.0 | 1.0 | 0.00 | 0.00 | 0.00 | 78 | 1017.0 |
| 20260507070126 | 61 | 355 | 0.0 | 1.0 | 0.00 | 0.00 | 0.00 | 77 | 1017.1 |
| 20260507065618 | 61 | 355 | 0.0 | 1.0 | 0.00 | 0.00 | 0.00 | 77 | 1017.0 |
| 20260507065015 | 61 | 355 | 0.0 | 2.0 | 0.00 | 0.00 | 0.00 | 77 | 1017.1 |
| 20260507064431 | 61 | 346 | 0.0 | 1.0 | 0.00 | 0.00 | 0.00 | 77 | 1017.0 |
| 20260507063911 | 61 | 351 | 0.0 | 1.0 | 0.00 | 0.00 | 0.00 | 77 | 1017.1 |
| 20260507063407 | 61 | 351 | 0.0 | 0.0 | 0.00 | 0.00 | 0.00 | 76 | 1017.2 |
| 20260507062823 | 61 | 351 | 0.0 | 1.0 | 0.00 | 0.00 | 0.00 | 76 | 1017.2 |
| 20260507062318 | 61 | 351 | 0.0 | 1.0 | 0.00 | 0.00 | 0.00 | 76 | 1017.1 |
| 20260507061217 | 61 | 323 | 0.0 | 1.0 | 0.00 | 0.00 | 0.00 | 75 | 1017.2 |
| 20260507060700 | 61 | 298 | 0.0 | 1.0 | 0.00 | 0.00 | 0.00 | 75 | 1017.2 |
| 20260507060143 | 61 | 9 | 0.0 | 0.0 | 0.00 | 0.00 | 0.00 | 75 | 1017.3 |
| 20260507055631 | 61 | 9 | 0.0 | 0.0 | 0.00 | 0.00 | 0.00 | 75 | 1017.2 |
| 20260507055055 | 61 | 9 | 0.0 | 0.0 | 0.00 | 0.00 | 0.00 | 75 | 1017.2 |
| 20260507054013 | 61 | 9 | 0.0 | 0.0 | 0.00 | 0.00 | 0.00 | 75 | 1017.2 |
| 20260507053507 | 61 | 9 | 0.0 | 0.0 | 0.00 | 0.00 | 0.00 | 75 | 1017.1 |
| 20260507053006 | 61 | 9 | 0.0 | 0.0 | 0.00 | 0.00 | 0.00 | 74 | 1017.1 |
| 20260507052505 | 61 | 9 | 0.0 | 0.0 | 0.00 | 0.00 | 0.00 | 74 | 1017.0 |
| 20260507051941 | 61 | 9 | 0.0 | 0.0 | 0.00 | 0.00 | 0.00 | 74 | 1017.0 |
| 20260507051417 | 61 | 9 | 0.0 | 0.0 | 0.00 | 0.00 | 0.00 | 74 | 1017.1 |
| 20260507050911 | 62 | 9 | 0.0 | 0.0 | 0.00 | 0.00 | 0.00 | 74 | 1017.1 |
| 20260507050409 | 62 | 9 | 0.0 | 0.0 | 0.00 | 0.00 | 0.00 | 74 | 1017.1 |
| 20260507045308 | 62 | 9 | 0.0 | 0.0 | 0.00 | 0.00 | 0.00 | 74 | 1017.0 |
| 20260507044219 | 62 | 9 | 0.0 | 2.0 | 0.00 | 0.00 | 0.00 | 74 | 1017.0 |
| 20260507043710 | 62 | 355 | 0.0 | 1.0 | 0.00 | 0.00 | 0.00 | 74 | 1017.0 |
| 20260507043147 | 62 | 355 | 0.0 | 2.0 | 0.00 | 0.00 | 0.00 | 74 | 1017.0 |
| 20260507042637 | 62 | 355 | 0.0 | 1.0 | 0.00 | 0.00 | 0.00 | 74 | 1017.0 |
| 20260507042131 | 62 | 325 | 0.0 | 1.0 | 0.00 | 0.00 | 0.00 | 74 | 1017.0 |
| 20260507041021 | 62 | 355 | 0.0 | 2.0 | 0.00 | 0.00 | 0.00 | 74 | 1016.9 |
| 20260507040511 | 62 | 288 | 0.0 | 2.0 | 0.00 | 0.00 | 0.00 | 74 | 1016.9 |
| 20260507040009 | 62 | 338 | 0.0 | 2.0 | 0.00 | 0.00 | 0.00 | 74 | 1016.9 |
| 20260507035504 | 62 | 338 | 0.0 | 2.0 | 0.00 | 0.00 | 0.00 | 74 | 1016.8 |
| 20260507034921 | 62 | 319 | 0.0 | 2.0 | 0.00 | 0.00 | 0.00 | 74 | 1016.7 |
| 20260507034409 | 62 | 285 | 1.0 | 3.0 | 0.00 | 0.00 | 0.00 | 74 | 1016.7 |
| 20260507033318 | 62 | 329 | 1.0 | 5.0 | 0.00 | 0.00 | 0.00 | 74 | 1016.6 |
| 20260507031709 | 62 | 336 | 2.0 | 5.0 | 0.00 | 0.00 | 0.00 | 74 | 1016.5 |
| 20260507031205 | 62 | 319 | 2.0 | 5.0 | 0.00 | 0.00 | 0.00 | 75 | 1016.4 |
| 20260507030648 | 63 | 333 | 1.0 | 6.0 | 0.00 | 0.00 | 0.00 | 75 | 1016.4 |
| 20260507030136 | 63 | 297 | 1.0 | 5.0 | 0.00 | 0.00 | 0.00 | 75 | 1016.3 |
| 20260507025544 | 63 | 283 | 1.0 | 5.0 | 0.00 | 0.00 | 0.00 | 75 | 1016.3 |
| 20260507025018 | 63 | 338 | 1.0 | 5.0 | 0.00 | 0.00 | 0.00 | 75 | 1016.2 |
| 20260507024514 | 64 | 0 | 0.0 | 5.0 | 0.00 | 0.00 | 0.00 | 75 | 1016.1 |
| 20260507024017 | 64 | 301 | 0.0 | 3.0 | 0.00 | 0.00 | 0.00 | 75 | 1016.1 |
| 20260507023417 | 64 | 286 | 1.0 | 7.0 | 0.00 | 0.00 | 0.00 | 75 | 1016.1 |
| 20260507022816 | 64 | 348 | 2.0 | 7.0 | 0.00 | 0.00 | 0.00 | 75 | 1016.1 |
| 20260507022311 | 64 | 300 | 2.0 | 6.0 | 0.00 | 0.00 | 0.00 | 75 | 1016.1 |
| 20260507021805 | 65 | 306 | 2.0 | 8.0 | 0.00 | 0.00 | 0.00 | 74 | 1016.1 |
| 20260507021302 | 65 | 17 | 1.0 | 6.0 | 0.00 | 0.00 | 0.00 | 74 | 1016.0 |
| 20260507020707 | 65 | 311 | 2.0 | 5.0 | 0.00 | 0.00 | 0.00 | 74 | 1015.9 |
| 20260507020147 | 65 | 321 | 3.0 | 9.0 | 0.00 | 0.00 | 0.00 | 74 | 1015.9 |
| 20260507015638 | 65 | 302 | 3.0 | 9.0 | 0.00 | 0.00 | 0.00 | 74 | 1015.9 |
| 20260507015131 | 65 | 271 | 3.0 | 9.0 | 0.00 | 0.00 | 0.00 | 74 | 1015.9 |
| 20260507014547 | 66 | 323 | 3.0 | 9.0 | 0.00 | 0.00 | 0.00 | 74 | 1015.9 |
| 20260507014028 | 66 | 264 | 3.0 | 6.0 | 0.00 | 0.00 | 0.00 | 73 | 1015.9 |
| 20260507013516 | 66 | 255 | 3.0 | 8.0 | 0.00 | 0.00 | 0.00 | 73 | 1015.8 |
| 20260507013008 | 66 | 342 | 3.0 | 7.0 | 0.00 | 0.00 | 0.00 | 73 | 1015.8 |
| 20260507011913 | 67 | 312 | 3.0 | 13.0 | 0.00 | 0.00 | 0.00 | 73 | 1015.8 |
| 20260507010825 | 67 | 236 | 4.0 | 14.0 | 0.00 | 0.00 | 0.00 | 73 | 1015.7 |
| 20260507010320 | 66 | 272 | 4.0 | 14.0 | 0.00 | 0.00 | 0.00 | 73 | 1015.7 |
| 20260507005815 | 67 | 294 | 4.0 | 12.0 | 0.00 | 0.00 | 0.00 | 72 | 1015.8 |
| 20260507005258 | 67 | 277 | 4.0 | 11.0 | 0.00 | 0.00 | 0.00 | 71 | 1015.7 |
| 20260507004714 | 68 | 257 | 3.0 | 10.0 | 0.00 | 0.00 | 0.00 | 71 | 1015.7 |
| 20260507004207 | 68 | 331 | 3.0 | 8.0 | 0.00 | 0.00 | 0.00 | 72 | 1015.7 |
| 20260507003635 | 68 | 273 | 3.0 | 8.0 | 0.00 | 0.00 | 0.00 | 72 | 1015.7 |
| 20260507003055 | 68 | 280 | 4.0 | 10.0 | 0.00 | 0.00 | 0.00 | 72 | 1015.7 |
| 20260507002522 | 68 | 341 | 3.0 | 10.0 | 0.00 | 0.00 | 0.00 | 72 | 1015.7 |
| 20260507002010 | 68 | 301 | 3.0 | 9.0 | 0.00 | 0.00 | 0.00 | 73 | 1015.7 |
| 20260507000916 | 69 | 302 | 3.0 | 9.0 | 0.00 | 0.00 | 0.00 | 71 | 1015.5 |
| 20260507000408 | 69 | 290 | 3.0 | 10.0 | 0.00 | 0.00 | 0.00 | 70 | 1015.5 |
| 20260506235847 | 69 | 258 | 3.0 | 10.0 | 0.00 | 0.00 | 0.00 | 70 | 1015.5 |
| 20260506235315 | 69 | 314 | 3.0 | 12.0 | 0.00 | 0.00 | 0.00 | 67 | 1015.5 |
| 20260506234800 | 69 | 322 | 3.0 | 12.0 | 0.00 | 0.00 | 0.00 | 67 | 1015.5 |
| 20260506234219 | 70 | 267 | 3.0 | 10.0 | 0.00 | 0.00 | 0.00 | 66 | 1015.5 |
| 20260506233703 | 70 | 227 | 4.0 | 9.0 | 0.00 | 0.00 | 0.00 | 66 | 1015.5 |
| 20260506233144 | 70 | 208 | 4.0 | 9.0 | 0.00 | 0.00 | 0.00 | 66 | 1015.5 |
| 20260506232642 | 71 | 268 | 4.0 | 11.0 | 0.00 | 0.00 | 0.00 | 64 | 1015.5 |
| 20260506232136 | 71 | 269 | 3.0 | 11.0 | 0.00 | 0.00 | 0.00 | 63 | 1015.5 |
| 20260506230606 | 70 | 287 | 4.0 | 11.0 | 0.00 | 0.00 | 0.00 | 58 | 1015.6 |
| 20260506230024 | 71 | 217 | 3.0 | 8.0 | 0.00 | 0.00 | 0.00 | 55 | 1015.7 |
| 20260506225509 | 70 | 298 | 3.0 | 8.0 | 0.00 | 0.00 | 0.00 | 57 | 1015.7 |
| 20260506224929 | 69 | 256 | 3.0 | 8.0 | 0.00 | 0.00 | 0.00 | 63 | 1015.7 |
| 20260506223906 | 68 | 170 | 4.0 | 10.0 | 0.00 | 0.00 | 0.00 | 71 | 1016.0 |
| 20260506223405 | 67 | 219 | 5.0 | 10.0 | 0.00 | 0.00 | 0.00 | 73 | 1016.1 |
| 20260506222321 | 68 | 206 | 4.0 | 13.0 | 0.00 | 0.00 | 0.00 | 72 | 1016.2 |
| 20260506221729 | 67 | 178 | 5.0 | 13.0 | 0.00 | 0.00 | 0.00 | 73 | 1016.2 |
| 20260506221216 | 67 | 228 | 4.0 | 10.0 | 0.00 | 0.00 | 0.00 | 74 | 1016.3 |
| 20260506220711 | 68 | 184 | 5.0 | 11.0 | 0.00 | 0.00 | 0.00 | 74 | 1016.4 |
| 20260506220143 | 68 | 196 | 5.0 | 11.0 | 0.00 | 0.00 | 0.00 | 73 | 1016.5 |
| 20260506215631 | 68 | 221 | 4.0 | 12.0 | 0.00 | 0.00 | 0.00 | 73 | 1016.5 |
| 20260506215028 | 68 | 204 | 4.0 | 12.0 | 0.00 | 0.00 | 0.00 | 72 | 1016.6 |
| 20260506214520 | 68 | 285 | 4.0 | 11.0 | 0.00 | 0.00 | 0.00 | 73 | 1016.6 |
| 20260506214009 | 68 | 228 | 5.0 | 11.0 | 0.00 | 0.00 | 0.00 | 73 | 1016.7 |
| 20260506213506 | 68 | 229 | 5.0 | 11.0 | 0.00 | 0.00 | 0.00 | 72 | 1016.7 |
| 20260506212927 | 68 | 227 | 5.0 | 11.0 | 0.00 | 0.00 | 0.00 | 71 | 1016.8 |
| 20260506212412 | 68 | 208 | 5.0 | 10.0 | 0.00 | 0.00 | 0.00 | 71 | 1016.9 |
| 20260506211835 | 68 | 211 | 4.0 | 11.0 | 0.00 | 0.00 | 0.00 | 71 | 1016.9 |
| 20260506211322 | 69 | 188 | 3.0 | 11.0 | 0.00 | 0.00 | 0.00 | 69 | 1016.9 |
| 20260506210748 | 69 | 306 | 3.0 | 10.0 | 0.00 | 0.00 | 0.00 | 70 | 1017.0 |
| 20260506210221 | 68 | 239 | 4.0 | 8.0 | 0.00 | 0.00 | 0.00 | 70 | 1017.0 |
| 20260506205208 | 69 | 267 | 4.0 | 11.0 | 0.00 | 0.00 | 0.00 | 70 | 1017.1 |
| 20260506204201 | 69 | 270 | 4.0 | 10.0 | 0.00 | 0.00 | 0.00 | 72 | 1017.2 |
| 20260506203644 | 68 | 202 | 5.0 | 10.0 | 0.00 | 0.00 | 0.00 | 72 | 1017.1 |
| 20260506203138 | 67 | 218 | 5.0 | 14.0 | 0.00 | 0.00 | 0.00 | 71 | 1017.2 |
| 20260506202557 | 68 | 242 | 4.0 | 14.0 | 0.00 | 0.00 | 0.00 | 70 | 1017.3 |
| 20260506202021 | 68 | 271 | 3.0 | 11.0 | 0.00 | 0.00 | 0.00 | 69 | 1017.3 |
| 20260506201507 | 68 | 183 | 3.0 | 10.0 | 0.00 | 0.00 | 0.00 | 70 | 1017.4 |
| 20260506200931 | 68 | 271 | 5.0 | 10.0 | 0.00 | 0.00 | 0.00 | 71 | 1017.4 |
| 20260506200417 | 67 | 225 | 4.0 | 10.0 | 0.00 | 0.00 | 0.00 | 70 | 1017.5 |
| 20260506195912 | 68 | 248 | 3.0 | 8.0 | 0.00 | 0.00 | 0.00 | 69 | 1017.6 |
| 20260506195403 | 68 | 211 | 4.0 | 10.0 | 0.00 | 0.00 | 0.00 | 71 | 1017.6 |
| 20260506194821 | 67 | 238 | 5.0 | 10.0 | 0.00 | 0.00 | 0.00 | 71 | 1017.6 |
| 20260506194313 | 67 | 291 | 5.0 | 10.0 | 0.00 | 0.00 | 0.00 | 73 | 1017.7 |
| 20260506193744 | 67 | 194 | 4.0 | 10.0 | 0.00 | 0.00 | 0.00 | 72 | 1017.8 |
| 20260506193214 | 67 | 309 | 4.0 | 10.0 | 0.00 | 0.00 | 0.00 | 72 | 1017.8 |
| 20260506192708 | 68 | 211 | 4.0 | 10.0 | 0.00 | 0.00 | 0.00 | 71 | 1017.8 |
| 20260506192209 | 67 | 242 | 3.0 | 10.0 | 0.00 | 0.00 | 0.00 | 72 | 1017.9 |
| 20260506191703 | 67 | 271 | 3.0 | 10.0 | 0.00 | 0.00 | 0.00 | 73 | 1018.0 |
| 20260506190635 | 67 | 247 | 3.0 | 8.0 | 0.00 | 0.00 | 0.00 | 72 | 1018.1 |
| 20260506184516 | 67 | 182 | 3.0 | 9.0 | 0.00 | 0.00 | 0.00 | 72 | 1018.2 |
| 20260506184016 | 67 | 215 | 4.0 | 8.0 | 0.00 | 0.00 | 0.00 | 74 | 1018.2 |
| 20260506183437 | 67 | 223 | 3.0 | 8.0 | 0.00 | 0.00 | 0.00 | 71 | 1018.3 |
| 20260506182924 | 67 | 235 | 3.0 | 9.0 | 0.00 | 0.00 | 0.00 | 73 | 1018.3 |
| 20260506182414 | 66 | 227 | 3.0 | 9.0 | 0.00 | 0.00 | 0.00 | 73 | 1018.4 |
| 20260506181903 | 67 | 207 | 3.0 | 9.0 | 0.00 | 0.00 | 0.00 | 72 | 1018.3 |
| 20260506181321 | 67 | 189 | 3.0 | 8.0 | 0.00 | 0.00 | 0.00 | 72 | 1018.4 |
| 20260506180810 | 67 | 232 | 3.0 | 8.0 | 0.00 | 0.00 | 0.00 | 73 | 1018.4 |
| 20260506180245 | 66 | 209 | 3.0 | 8.0 | 0.00 | 0.00 | 0.00 | 74 | 1018.4 |
| 20260506175709 | 66 | 207 | 4.0 | 8.0 | 0.00 | 0.00 | 0.00 | 73 | 1018.3 |
| 20260506175142 | 66 | 242 | 5.0 | 10.0 | 0.00 | 0.00 | 0.00 | 73 | 1018.3 |
| 20260506174630 | 66 | 190 | 4.0 | 9.0 | 0.00 | 0.00 | 0.00 | 75 | 1018.3 |
| 20260506174018 | 65 | 173 | 4.0 | 9.0 | 0.00 | 0.00 | 0.00 | 75 | 1018.3 |
| 20260506173514 | 66 | 211 | 4.0 | 8.0 | 0.00 | 0.00 | 0.00 | 73 | 1018.2 |
| 20260506172942 | 66 | 178 | 3.0 | 8.0 | 0.00 | 0.00 | 0.00 | 75 | 1018.2 |
| 20260506172418 | 65 | 175 | 3.0 | 8.0 | 0.00 | 0.00 | 0.00 | 73 | 1018.3 |
| 20260506171857 | 66 | 173 | 3.0 | 8.0 | 0.00 | 0.00 | 0.00 | 74 | 1018.3 |
| 20260506171319 | 66 | 194 | 3.0 | 8.0 | 0.00 | 0.00 | 0.00 | 75 | 1018.4 |
| 20260506170821 | 65 | 190 | 3.0 | 8.0 | 0.00 | 0.00 | 0.00 | 75 | 1018.3 |
| 20260506170319 | 65 | 162 | 4.0 | 8.0 | 0.00 | 0.00 | 0.00 | 76 | 1018.4 |
| 20260506165809 | 64 | 178 | 4.0 | 7.0 | 0.00 | 0.00 | 0.00 | 75 | 1018.4 |
| 20260506164755 | 64 | 233 | 3.0 | 6.0 | 0.00 | 0.00 | 0.00 | 76 | 1018.5 |
| 20260506164218 | 64 | 249 | 3.0 | 7.0 | 0.00 | 0.00 | 0.00 | 76 | 1018.4 |
| 20260506163706 | 64 | 183 | 3.0 | 7.0 | 0.00 | 0.00 | 0.00 | 76 | 1018.4 |
| 20260506162627 | 64 | 195 | 2.0 | 5.0 | 0.00 | 0.00 | 0.00 | 77 | 1018.4 |
| 20260506162057 | 63 | 209 | 2.0 | 5.0 | 0.00 | 0.00 | 0.00 | 77 | 1018.4 |
| 20260506161514 | 63 | 202 | 2.0 | 6.0 | 0.00 | 0.00 | 0.00 | 77 | 1018.4 |
| 20260506161008 | 63 | 219 | 3.0 | 6.0 | 0.00 | 0.00 | 0.00 | 78 | 1018.4 |
| 20260506155414 | 62 | 182 | 2.0 | 5.0 | 0.00 | 0.00 | 0.00 | 77 | 1018.3 |
| 20260506154845 | 62 | 171 | 1.0 | 5.0 | 0.00 | 0.00 | 0.00 | 77 | 1018.3 |
| 20260506153800 | 62 | 144 | 1.0 | 5.0 | 0.00 | 0.00 | 0.00 | 79 | 1018.3 |
| 20260506153217 | 61 | 219 | 1.0 | 4.0 | 0.00 | 0.00 | 0.00 | 79 | 1018.3 |
| 20260506152136 | 61 | 167 | 1.0 | 3.0 | 0.00 | 0.00 | 0.00 | 79 | 1018.3 |
| 20260506151548 | 61 | 235 | 0.0 | 2.0 | 0.00 | 0.00 | 0.00 | 78 | 1018.3 |
| 20260506151025 | 60 | 181 | 0.0 | 2.0 | 0.00 | 0.00 | 0.00 | 78 | 1018.3 |
| 20260506145925 | 60 | 178 | 1.0 | 3.0 | 0.00 | 0.00 | 0.00 | 79 | 1018.3 |
| 20260506145418 | 60 | 90 | 0.0 | 3.0 | 0.00 | 0.00 | 0.00 | 80 | 1018.2 |
| 20260506144914 | 59 | 141 | 0.0 | 2.0 | 0.00 | 0.00 | 0.00 | 81 | 1018.2 |
| 20260506144409 | 58 | 340 | 0.0 | 2.0 | 0.00 | 0.00 | 0.00 | 82 | 1018.2 |
| 20260506143905 | 57 | 339 | 0.0 | 2.0 | 0.00 | 0.00 | 0.00 | 83 | 1018.2 |
| 20260506143324 | 56 | 340 | 0.0 | 1.0 | 0.00 | 0.00 | 0.00 | 84 | 1018.1 |
| 20260506142736 | 55 | 340 | 0.0 | 1.0 | 0.00 | 0.00 | 0.00 | 85 | 1018.1 |
| 20260506142213 | 55 | 340 | 0.0 | 1.0 | 0.00 | 0.00 | 0.00 | 85 | 1018.0 |
| 20260506141647 | 55 | 340 | 0.0 | 2.0 | 0.00 | 0.00 | 0.00 | 85 | 1018.1 |
| 20260506140017 | 54 | 355 | 1.0 | 2.0 | 0.00 | 0.00 | 0.00 | 86 | 1018.0 |
| 20260506135505 | 53 | 339 | 1.0 | 2.0 | 0.00 | 0.00 | 0.00 | 85 | 1017.9 |
| 20260506134928 | 53 | 355 | 1.0 | 2.0 | 0.00 | 0.00 | 0.00 | 85 | 1017.9 |
| 20260506133829 | 53 | 346 | 1.0 | 2.0 | 0.00 | 0.00 | 0.00 | 85 | 1017.7 |